"2009-07-17 00:00:00",1068769,3.118,128.7,5.969,0.386,20.2,110.0352,24.99,26.04,26.02,0,111.3,13.09,25.82,90.7
"2009-07-17 00:00:30",1068770,3.846,140.4,10.89,0.601,20.38,110.0165,24.94,26.02,26.22,0,111.3,13.09,25.78,102.4
"2009-07-17 00:01:00",1068771,4.138,142.2,7.031,0.307,20.28,109.9963,24.89,25.97,26,0,111.3,13.09,25.72,104.2
"2009-07-17 00:01:30",1068772,4.194,147.9,4.49,0.284,20.32,109.9954,24.88,25.93,26.04,0,111.3,13.09,25.72,109.9
"2009-07-17 00:02:00",1068773,4.66,149.4,4.708,0.374,20.29,109.9963,24.89,25.91,26.25,0,111.3,13.09,25.72,111.4
"2009-07-17 00:02:30",1068774,4.853,146.6,6.085,0.434,20.34,109.9963,24.89,25.9,26.55,0,111.3,13.09,25.72,108.6
"2009-07-17 00:03:00",1068775,4.862,144.6,6.512,0.269,20.37,109.9963,24.89,25.88,26.78,0,111.3,13.09,25.72,106.6
"2009-07-17 00:03:30",1068776,4.649,151,5.025,0.374,20.39,109.996,24.88,25.9,26.8,0,111.3,13.09,25.72,113.0
"2009-07-17 00:04:00",1068777,4.994,155.1,5.715,0.338,20.48,109.9966,24.89,25.89,27.01,0,111.3,13.09,25.72,117.1
"2009-07-17 00:04:30",1068778,5.786,166.6,7.726,0.371,20.56,109.9966,24.89,25.89,27.5,0,111.3,13.09,25.72,128.6
"2009-07-17 00:05:00",1068779,5.666,176,3.538,0.458,20.57,109.9958,24.88,25.88,27.63,0,111.3,13.1,25.72,138.0
"2009-07-17 00:05:30",1068780,5.261,175.8,3.029,0.416,20.58,109.975,24.83,25.88,27.61,0,111.3,13.1,25.67,137.8
"2009-07-17 00:06:00",1068781,3.962,156.7,8.55,0.29,20.59,109.9433,24.75,25.84,28.05,0,111.3,13.1,25.59,118.7
"2009-07-17 00:06:30",1068782,4.752,151.6,6.167,0.519,20.55,109.9027,24.64,25.78,28.05,0,111.3,13.1,25.48,113.6
"2009-07-17 00:07:00",1068783,5.859,152.9,3.927,0.381,20.51,109.8839,24.6,25.71,27.72,0,111.3,13.1,25.43,114.9
"2009-07-17 00:07:30",1068784,5.844,155.1,4.05,0.512,20.48,109.8766,24.58,25.69,27.87,0,111.3,13.1,25.42,117.1
"2009-07-17 00:08:00",1068785,4.99,158.9,4.07,0.597,20.55,109.8732,24.57,25.66,28.37,0,111.3,13.1,25.41,120.9
"2009-07-17 00:08:30",1068786,5.569,166.8,4.12,0.553,20.56,109.8715,24.56,25.64,28.63,0,111.3,13.1,25.40,128.8
"2009-07-17 00:09:00",1068787,5.365,158.6,4.942,0.323,20.69,109.8634,24.54,25.62,28.79,0,111.3,13.1,25.38,120.6
"2009-07-17 00:09:30",1068788,5.955,164.8,5.211,0.291,20.61,109.862,24.54,25.6,28.87,0,111.3,13.1,25.38,126.8
"2009-07-17 00:10:00",1068789,5.789,163.7,2.637,0.236,20.5,109.862,24.54,25.58,28.57,0,111.3,13.1,25.38,125.7
"2009-07-17 00:10:30",1068790,6.057,160.9,6.739,0.512,20.52,109.862,24.54,25.57,28.34,0,111.3,13.1,25.38,122.9
"2009-07-17 00:11:00",1068791,5.701,152,2.174,0.295,20.43,109.862,24.54,25.57,28.13,0,111.3,13.1,25.38,114.0
"2009-07-17 00:11:30",1068792,5.404,154.7,4.203,0.26,20.42,109.862,24.54,25.56,28.07,0,111.3,13.1,25.38,116.7
"2009-07-17 00:12:00",1068793,5.005,160,2.518,0.374,20.39,109.862,24.54,25.57,28.38,0,111.2,13.1,25.38,122.0
"2009-07-17 00:12:30",1068794,5.294,165.3,2.422,0.237,20.49,109.862,24.54,25.56,28.42,0,111.3,13.1,25.38,127.3
"2009-07-17 00:13:00",1068795,5.407,159.3,2.554,0.25,20.41,109.8578,24.53,25.55,28.33,0,111.2,13.1,25.37,121.3
"2009-07-17 00:13:30",1068796,4.762,163,5.006,0.244,20.34,109.8449,24.5,25.55,28.18,0,111.2,13.1,25.33,125.0
"2009-07-17 00:14:00",1068797,4.352,155.5,2.921,0.22,20.27,109.8382,24.48,25.55,28.14,0,111.2,13.1,25.32,117.5
"2009-07-17 00:14:30",1068798,4.508,156.5,2.161,0.201,20.32,109.8328,24.47,25.55,28.03,0,111.2,13.1,25.30,118.5
"2009-07-17 00:15:00",1068799,4.248,161.6,4.338,0.271,20.39,109.8292,24.46,25.55,28.52,0,111.2,13.1,25.29,123.6
"2009-07-17 00:15:30",1068800,4.342,167.9,2.534,0.23,20.42,109.8286,24.45,25.53,28.59,0,111.2,13.1,25.29,129.9
"2009-07-17 00:16:00",1068801,4.224,154.6,5.758,0.237,20.3,109.8293,24.46,25.53,28.38,0,111.2,13.1,25.29,116.6
"2009-07-17 00:16:30",1068802,4.552,154.9,1.796,0.264,20.3,109.8299,24.46,25.53,28.3,0,111.2,13.1,25.29,116.9
"2009-07-17 00:17:00",1068803,3.764,149.3,4.337,0.373,20.33,109.8311,24.46,25.52,28.31,0,111.2,13.1,25.30,111.3
"2009-07-17 00:17:30",1068804,3.515,152,3.338,0.232,20.28,109.8333,24.47,25.53,28.29,0,111.2,13.1,25.30,114.0
"2009-07-17 00:18:00",1068805,3.575,149.3,8.48,0.304,20.28,109.8382,24.48,25.52,28.2,0,111.2,13.1,25.32,111.3
"2009-07-17 00:18:30",1068806,4.184,149.1,6.982,0.269,20.3,109.841,24.49,25.53,28.41,0,111.2,13.1,25.32,111.1
"2009-07-17 00:19:00",1068807,4.283,159.2,8.39,0.178,20.37,109.8416,24.49,25.52,28.61,0,111.2,13.1,25.32,121.2
"2009-07-17 00:19:30",1068808,3.803,161,6.022,0.208,20.38,109.8456,24.5,25.52,29.02,0,111.2,13.1,25.34,123.0
"2009-07-17 00:20:00",1068809,4.249,153.5,7.647,0.2,20.33,109.8474,24.5,25.51,28.64,0,111.2,13.1,25.34,115.5
"2009-07-17 00:20:30",1068810,4.378,157.5,4.379,0.657,20.43,109.8496,24.51,25.53,28.7,0,111.2,13.1,25.35,119.5
"2009-07-17 00:21:00",1068811,4.883,159.9,8.08,0.368,20.49,109.8508,24.51,25.53,29.48,0,111.2,13.1,25.35,121.9
"2009-07-17 00:21:30",1068812,4.49,167.1,6.239,0.477,20.56,109.8545,24.52,25.52,29.36,0,111.2,13.1,25.36,129.1
"2009-07-17 00:22:00",1068813,5.064,164.1,4.701,0.287,20.51,109.8539,24.52,25.53,29.66,0,111.2,13.1,25.36,126.1
"2009-07-17 00:22:30",1068814,5.543,166.1,4.933,0.325,20.5,109.8558,24.52,25.54,29.61,0,111.2,13.1,25.36,128.1
"2009-07-17 00:23:00",1068815,5.386,165.1,2.794,0.28,20.47,109.8561,24.52,25.52,29.62,0,111.2,13.1,25.36,127.1
"2009-07-17 00:23:30",1068816,4.663,170.9,4.19,0.499,20.51,109.8558,24.52,25.52,29.55,0,111.2,13.1,25.36,132.9
"2009-07-17 00:24:00",1068817,4.151,174.9,4.968,0.205,20.36,109.8561,24.52,25.52,29.34,0,111.2,13.1,25.36,136.9
"2009-07-17 00:24:30",1068818,4.312,165.8,3.176,0.237,20.38,109.8561,24.52,25.54,29.36,0,111.2,13.1,25.36,127.8
"2009-07-17 00:25:00",1068819,4.018,169.1,3.037,0.144,20.33,109.8561,24.52,25.52,29.28,0,111.2,13.1,25.36,131.1
"2009-07-17 00:25:30",1068820,3.649,160.9,5.101,0.17,20.31,109.8558,24.52,25.52,29.12,0,111.2,13.1,25.36,122.9
"2009-07-17 00:26:00",1068821,4.306,152.1,4.363,0.404,20.32,109.8547,24.52,25.52,28.9,0,111.2,13.1,25.36,114.1
"2009-07-17 00:26:30",1068822,4.167,152.5,4.044,0.219,20.31,109.8544,24.52,25.51,28.95,0,111.2,13.1,25.36,114.5
"2009-07-17 00:27:00",1068823,4.029,156.4,5.031,0.221,20.34,109.8488,24.51,25.51,28.91,0,111.2,13.1,25.34,118.4
"2009-07-17 00:27:30",1068824,3.422,167.1,6.121,0.236,20.26,109.8418,24.49,25.49,28.97,0,111.2,13.1,25.33,129.1
"2009-07-17 00:28:00",1068825,3.181,160.8,6.137,0.165,20.19,109.8397,24.48,25.51,29.11,0,111.2,13.1,25.32,122.8
"2009-07-17 00:28:30",1068826,3.265,153.4,2.629,0.244,20.22,109.835,24.47,25.51,28.79,0,111.2,13.1,25.31,115.4
"2009-07-17 00:29:00",1068827,3.566,147.3,2.917,0.322,20.31,109.834,24.47,25.51,28.9,0,111.2,13.1,25.31,109.3
"2009-07-17 00:29:30",1068828,3.196,155.3,3.13,0.18,20.25,109.8345,24.47,25.5,28.66,0,111.2,13.1,25.31,117.3
"2009-07-17 00:30:00",1068829,3.266,151.2,3.292,0.184,20.27,109.8331,24.47,25.5,28.68,0,111.2,13.1,25.30,113.2
"2009-07-17 00:30:30",1068830,3.217,151.6,3.061,0.233,20.29,109.8366,24.47,25.51,28.8,0,111.2,13.1,25.31,113.6
"2009-07-17 00:31:00",1068831,3.163,159.3,3.887,0.212,20.23,109.8377,24.48,25.5,28.74,0,111.2,13.1,25.31,121.3
"2009-07-17 00:31:30",1068832,3.082,161.5,4.154,0.185,20.2,109.84,24.48,25.52,28.89,0,111.2,13.1,25.32,123.5
"2009-07-17 00:32:00",1068833,3.395,157.8,2.431,0.173,20.21,109.8416,24.49,25.5,28.89,0,111.2,13.1,25.32,119.8
"2009-07-17 00:32:30",1068834,3.061,155.9,1.808,0.067,20.27,109.8445,24.5,25.5,28.86,0,111.2,13.11,25.33,117.9
"2009-07-17 00:33:00",1068835,3.114,153.3,1.406,0.12,20.24,109.8482,24.5,25.51,28.72,0,111.2,13.1,25.34,115.3
"2009-07-17 00:33:30",1068836,3.011,152.5,1.8,0.092,20.28,109.853,24.52,25.51,28.67,0,111.2,13.1,25.35,114.5
"2009-07-17 00:34:00",1068837,2.954,154.5,2.999,0.123,20.28,109.8615,24.54,25.51,28.72,0,111.2,13.1,25.38,116.5
"2009-07-17 00:34:30",1068838,3.241,151.2,5.252,0.278,20.3,109.8616,24.54,25.52,28.66,0,111.2,13.1,25.38,113.2
"2009-07-17 00:35:00",1068839,4.35,163.1,3.426,0.399,20.39,109.8616,24.54,25.52,29.09,0,111.2,13.1,25.38,125.1
"2009-07-17 00:35:30",1068840,4.31,165.3,6.887,0.209,20.42,109.8635,24.54,25.5,29.37,0,111.2,13.1,25.38,127.3
"2009-07-17 00:36:00",1068841,4.157,154,5.464,0.356,20.44,109.8622,24.54,25.53,29.22,0,111.2,13.1,25.38,116.0
"2009-07-17 00:36:30",1068842,2.84,154.5,4.563,0.426,20.37,109.8635,24.54,25.51,29.17,0,111.2,13.1,25.38,116.5
"2009-07-17 00:37:00",1068843,2.945,171.3,6.515,0.358,20.34,109.8641,24.55,25.52,29.12,0,111.2,13.1,25.38,133.3
"2009-07-17 00:37:30",1068844,3.438,174.5,2.654,0.421,20.38,109.8632,24.54,25.54,29.34,0,111.2,13.1,25.38,136.5
"2009-07-17 00:38:00",1068845,2.974,166.2,8.86,0.41,20.32,109.8644,24.55,25.55,29.41,0,111.2,13.1,25.38,128.2
"2009-07-17 00:38:30",1068846,2.362,155.5,3.495,0.106,20.35,109.8635,24.54,25.55,29.28,0,111.2,13.1,25.38,117.5
"2009-07-17 00:39:00",1068847,2.901,163.1,8.57,0.244,20.37,109.8647,24.55,25.55,29.4,0,111.2,13.1,25.38,125.1
"2009-07-17 00:39:30",1068848,3.417,150.9,4.016,0.327,20.35,109.865,24.55,25.53,29.37,0,111.2,13.1,25.39,112.9
"2009-07-17 00:40:00",1068849,3.707,163.5,4.308,0.189,20.43,109.8644,24.55,25.53,29.43,0,111.2,13.1,25.38,125.5
"2009-07-17 00:40:30",1068850,3.881,158.3,4.32,0.211,20.46,109.8653,24.55,25.55,29.36,0,111.2,13.1,25.39,120.3
"2009-07-17 00:41:00",1068851,3.71,158.8,5.36,0.211,20.42,109.8653,24.55,25.54,29.3,0,111.2,13.1,25.39,120.8
"2009-07-17 00:41:30",1068852,3.63,150.5,7.549,0.388,20.49,109.8653,24.55,25.53,29.41,0,111.2,13.1,25.39,112.5
"2009-07-17 00:42:00",1068853,3.314,144.2,5.469,0.213,20.54,109.865,24.55,25.55,29.62,0,111.2,13.1,25.39,106.2
"2009-07-17 00:42:30",1068854,3.285,153.2,4.04,0.279,20.53,109.865,24.55,25.54,29.84,0,111.2,13.1,25.39,115.2
"2009-07-17 00:43:00",1068855,4.194,164.2,6.326,0.515,20.61,109.842,24.49,25.53,29.97,0,111.2,13.1,25.33,126.2
"2009-07-17 00:43:30",1068856,3.742,178.6,6.045,0.518,20.67,109.8316,24.46,25.51,29.92,0,111.2,13.1,25.30,140.6
"2009-07-17 00:44:00",1068857,3.18,174.9,9.88,0.405,20.58,109.8328,24.46,25.48,29.94,0,111.2,13.1,25.30,136.9
"2009-07-17 00:44:30",1068858,4.227,162,4.526,0.259,20.51,109.8342,24.47,25.47,29.83,0,111.2,13.1,25.31,124.0
"2009-07-17 00:45:00",1068859,4.293,162.9,3.024,0.209,20.49,109.8381,24.48,25.48,29.85,0,111.2,13.1,25.32,124.9
"2009-07-17 00:45:30",1068860,4.243,165.4,3.278,0.156,20.43,109.8409,24.49,25.47,29.85,0,111.2,13.1,25.32,127.4
"2009-07-17 00:46:00",1068861,3.772,158.3,5.031,0.138,20.35,109.8426,24.49,25.48,29.84,0,111.2,13.1,25.33,120.3
"2009-07-17 00:46:30",1068862,3.477,148.1,2.872,0.232,20.36,109.8454,24.5,25.48,29.85,0,111.2,13.1,25.33,110.1
"2009-07-17 00:47:00",1068863,4.322,148.8,2.457,0.194,20.59,109.8471,24.5,25.5,30.07,0,111.2,13.1,25.34,110.8
"2009-07-17 00:47:30",1068864,4.31,146.8,5.696,0.269,20.51,109.8403,24.48,25.49,29.88,0,111.2,13.11,25.32,108.8
"2009-07-17 00:48:00",1068865,4.373,152.6,5.451,0.206,20.54,109.8426,24.49,25.5,29.85,0,111.2,13.1,25.33,114.6
"2009-07-17 00:48:30",1068866,4.936,156.8,3.598,0.432,20.53,109.8471,24.5,25.49,29.87,0,111.2,13.1,25.34,118.8
"2009-07-17 00:49:00",1068867,4.853,158.8,4.334,0.549,20.54,109.8499,24.51,25.51,29.84,0,111.2,13.1,25.35,120.8
"2009-07-17 00:49:30",1068868,3.871,160.6,5.06,0.349,20.51,109.8488,24.51,25.51,29.82,0,111.2,13.1,25.34,122.6
"2009-07-17 00:50:00",1068869,3.998,162.1,2.653,0.31,20.48,109.8448,24.5,25.51,29.78,0,111.2,13.11,25.33,124.1
"2009-07-17 00:50:30",1068870,4.131,158.1,3.127,0.241,20.5,109.8418,24.49,25.51,29.86,0,111.2,13.11,25.33,120.1
"2009-07-17 00:51:00",1068871,4.436,157.2,2.439,0.21,20.51,109.8403,24.48,25.5,29.8,0,111.2,13.1,25.32,119.2
"2009-07-17 00:51:30",1068872,4.221,157.2,3.447,0.288,20.49,109.8401,24.48,25.51,29.83,0,111.2,13.1,25.32,119.2
"2009-07-17 00:52:00",1068873,4.139,160,3.069,0.134,20.52,109.8389,24.48,25.52,29.79,0,111.2,13.1,25.32,122.0
"2009-07-17 00:52:30",1068874,4.683,155.3,3.074,0.283,20.51,109.8342,24.47,25.51,29.78,0,111.2,13.1,25.31,117.3
"2009-07-17 00:53:00",1068875,4.379,156.5,1.547,0.102,20.57,109.8316,24.46,25.51,29.76,0,111.2,13.1,25.30,118.5
"2009-07-17 00:53:30",1068876,4.279,158,1.84,0.151,20.58,109.8316,24.46,25.51,29.88,0,111.2,13.1,25.30,120.0
"2009-07-17 00:54:00",1068877,4.071,157,1.189,0.086,20.54,109.8316,24.46,25.5,29.84,0,111.2,13.1,25.30,119.0
"2009-07-17 00:54:30",1068878,4.268,156.1,3.054,0.127,20.56,109.8316,24.46,25.51,29.6,0,111.2,13.1,25.30,118.1
"2009-07-17 00:55:00",1068879,4.357,164.1,2.714,0.189,20.55,109.8316,24.46,25.5,29.6,0,111.2,13.1,25.30,126.1
"2009-07-17 00:55:30",1068880,4.065,161.7,2.516,0.157,20.56,109.8316,24.46,25.5,29.64,0,111.2,13.1,25.30,123.7
"2009-07-17 00:56:00",1068881,3.86,162.1,2.265,0.09,20.5,109.83,24.46,25.5,29.79,0,111.2,13.1,25.30,124.1
"2009-07-17 00:56:30",1068882,4.331,161.4,3.186,0.264,20.54,109.8241,24.44,25.48,29.67,0,111.2,13.1,25.28,123.4
"2009-07-17 00:57:00",1068883,4.095,159.5,1.757,0.135,20.53,109.8131,24.41,25.48,29.59,0,111.2,13.11,25.25,121.5
"2009-07-17 00:57:30",1068884,4.18,154.8,1.784,0.25,20.48,109.81,24.41,25.47,29.59,0,111.2,13.11,25.24,116.8
"2009-07-17 00:58:00",1068885,4.489,162.7,1.91,0.084,20.59,109.8067,24.4,25.47,29.62,0,111.2,13.11,25.23,124.7
"2009-07-17 00:58:30",1068886,4.431,161.6,2.149,0.089,20.58,109.8036,24.39,25.47,29.58,0,111.2,13.11,25.23,123.6
"2009-07-17 00:59:00",1068887,4.558,159.3,0.732,0.117,20.57,109.7994,24.38,25.46,29.61,0,111.2,13.11,25.22,121.3
"2009-07-17 00:59:30",1068888,4.604,162.7,2.741,0.128,20.6,109.8001,24.38,25.46,29.59,0,111.2,13.11,25.22,124.7
"2009-07-17 01:00:00",1068889,4.575,164.2,3.779,0.117,20.61,109.8001,24.38,25.46,29.7,0,111.2,13.11,25.22,126.2
"2009-07-17 01:00:30",1068890,4.53,162.1,1.918,0.169,20.59,109.8008,24.38,25.45,29.78,0,111.2,13.11,25.22,124.1
"2009-07-17 01:01:00",1068891,4.413,162.6,3.738,0.186,20.6,109.7976,24.37,25.43,29.76,0,111.2,13.11,25.21,124.6
"2009-07-17 01:01:30",1068892,4.779,163.7,3.949,0.164,20.66,109.7866,24.35,25.43,29.6,0,111.2,13.11,25.18,125.7
"2009-07-17 01:02:00",1068893,3.962,169.3,2.063,0.191,20.64,109.7829,24.34,25.41,29.63,0,111.2,13.11,25.17,131.3
"2009-07-17 01:02:30",1068894,4.329,163,3.978,0.226,20.6,109.7813,24.33,25.4,29.58,0,111.2,13.11,25.17,125.0
"2009-07-17 01:03:00",1068895,4.097,161.2,2.524,0.171,20.57,109.7819,24.33,25.4,29.57,0,111.2,13.11,25.17,123.2
"2009-07-17 01:03:30",1068896,3.614,157.8,4.64,0.295,20.55,109.7803,24.33,25.39,29.59,0,111.2,13.11,25.17,119.8
"2009-07-17 01:04:00",1068897,3.212,169.9,6.417,0.155,20.54,109.7813,24.33,25.39,29.61,0,111.2,13.11,25.17,131.9
"2009-07-17 01:04:30",1068898,4.099,170.8,3.924,0.437,20.56,109.7816,24.33,25.37,29.63,0,111.2,13.11,25.17,132.8
"2009-07-17 01:05:00",1068899,4.223,164.1,3.079,0.145,20.63,109.7837,24.34,25.39,29.65,0,111.2,13.11,25.18,126.1
"2009-07-17 01:05:30",1068900,4.167,162.4,1.43,0.172,20.58,109.7859,24.34,25.37,29.65,0,111.2,13.11,25.18,124.4
"2009-07-17 01:06:00",1068901,4.539,176.6,3.776,0.405,20.62,109.7859,24.34,25.36,29.64,0,111.2,13.11,25.18,138.6
"2009-07-17 01:06:30",1068902,4.826,172.7,2.457,0.243,20.66,109.7845,24.34,25.36,29.67,0,111.2,13.11,25.18,134.7
"2009-07-17 01:07:00",1068903,4.511,170.1,2.945,0.233,20.67,109.7849,24.34,25.36,29.71,0,111.2,13.11,25.18,132.1
"2009-07-17 01:07:30",1068904,4.991,172.2,3.432,0.28,20.61,109.7826,24.34,25.35,29.72,0,111.2,13.11,25.17,134.2
"2009-07-17 01:08:00",1068905,5.13,177.4,2.163,0.152,20.58,109.7745,24.32,25.34,29.71,0,111.2,13.11,25.15,139.4
"2009-07-17 01:08:30",1068906,5.303,172.4,1.585,0.199,20.62,109.7675,24.3,25.35,29.71,0,111.2,13.11,25.13,134.4
"2009-07-17 01:09:00",1068907,4.849,167,3.319,0.148,20.65,109.7611,24.28,25.32,29.72,0,111.2,13.1,25.12,129.0
"2009-07-17 01:09:30",1068908,4.889,167.5,6.677,0.343,20.63,109.758,24.27,25.32,29.73,0,111.2,13.1,25.11,129.5
"2009-07-17 01:10:00",1068909,4.547,153.5,2.761,0.199,20.76,109.7583,24.27,25.32,30.13,0,111.2,13.1,25.11,115.5
"2009-07-17 01:10:30",1068910,4.361,171.6,7.842,0.308,20.66,109.7583,24.27,25.3,29.94,0,111.2,13.1,25.11,133.6
"2009-07-17 01:11:00",1068911,4.404,171.4,2.928,0.243,20.7,109.7583,24.27,25.3,29.8,0,111.2,13.1,25.11,133.4
"2009-07-17 01:11:30",1068912,3.958,167.9,1.666,0.15,20.67,109.7587,24.27,25.3,29.9,0,111.2,13.1,25.11,129.9
"2009-07-17 01:12:00",1068913,4.11,168.9,2.816,0.223,20.68,109.7594,24.28,25.29,30.05,0,111.2,13.1,25.11,130.9
"2009-07-17 01:12:30",1068914,4.123,177.9,2.921,0.214,20.71,109.7551,24.27,25.28,30.12,0,111.2,13.1,25.10,139.9
"2009-07-17 01:13:00",1068915,4.356,178.4,1.634,0.267,20.81,109.7484,24.25,25.28,30.15,0,111.2,13.1,25.08,140.4
"2009-07-17 01:13:30",1068916,4.447,181.8,2.464,0.169,20.84,109.7478,24.25,25.26,29.86,0,111.2,13.11,25.08,143.8
"2009-07-17 01:14:00",1068917,4.791,180.7,1.667,0.186,20.88,109.7508,24.25,25.27,29.59,0,111.2,13.11,25.09,142.7
"2009-07-17 01:14:30",1068918,4.602,179.4,2.316,0.177,20.87,109.7526,24.26,25.27,29.54,0,111.2,13.11,25.10,141.4
"2009-07-17 01:15:00",1068919,4.475,177.7,4.281,0.3,20.86,109.7477,24.25,25.27,29.6,0,111.2,13.12,25.08,139.7
"2009-07-17 01:15:30",1068920,4.594,181.3,5.032,0.354,20.89,109.7501,24.25,25.25,29.68,0,111.2,13.12,25.09,143.3
"2009-07-17 01:16:00",1068921,4.349,176,2.96,0.168,20.86,109.7476,24.25,25.27,29.8,0,111.2,13.12,25.08,138.0
"2009-07-17 01:16:30",1068922,4.182,174.5,4.521,0.228,20.85,109.7456,24.24,25.27,29.81,0,111.2,13.12,25.08,136.5
"2009-07-17 01:17:00",1068923,4.437,171.8,3.669,0.164,20.87,109.7432,24.23,25.26,29.95,0,111.2,13.12,25.07,133.8
"2009-07-17 01:17:30",1068924,4.723,176.7,2.826,0.307,20.88,109.742,24.23,25.25,29.69,0,111.2,13.12,25.07,138.7
"2009-07-17 01:18:00",1068925,4.791,179.8,2.076,0.249,20.9,109.7423,24.23,25.25,29.6,0,111.2,13.12,25.07,141.8
"2009-07-17 01:18:30",1068926,4.86,179.3,4.038,0.398,20.93,109.7412,24.23,25.25,29.65,0,111.2,13.12,25.07,141.3
"2009-07-17 01:19:00",1068927,5.404,193.5,5.769,0.266,20.96,109.7381,24.22,25.24,29.71,0,111.2,13.12,25.06,155.5
"2009-07-17 01:19:30",1068928,5.076,187.8,4.992,0.232,20.97,109.7384,24.22,25.24,29.67,0,111.2,13.12,25.06,149.8
"2009-07-17 01:20:00",1068929,4.598,188.4,4.355,0.279,20.95,109.7373,24.22,25.25,29.64,0,111.1,13.12,25.06,150.4
"2009-07-17 01:20:30",1068930,4.713,177,5.586,0.343,20.92,109.7381,24.22,25.25,29.65,0,111.2,13.12,25.06,139.0
"2009-07-17 01:21:00",1068931,4.733,170.6,3.129,0.211,20.94,109.7342,24.21,25.24,29.69,0,111.2,13.12,25.05,132.6
"2009-07-17 01:21:30",1068932,4.302,186.4,5.18,0.209,20.91,109.7339,24.21,25.23,29.65,0,111.1,13.12,25.05,148.4
"2009-07-17 01:22:00",1068933,4.431,183.9,2.983,0.211,20.92,109.7339,24.21,25.25,29.65,0,111.1,13.12,25.05,145.9
"2009-07-17 01:22:30",1068934,5.24,184.1,2.515,0.369,20.98,109.7339,24.21,25.23,29.69,0,111.1,13.12,25.05,146.1
"2009-07-17 01:23:00",1068935,5.803,183.7,1.167,0.253,21.05,109.7339,24.21,25.24,29.65,0,111.1,13.12,25.05,145.7
"2009-07-17 01:23:30",1068936,5.56,186,3.402,0.201,21.05,109.7339,24.21,25.24,29.68,0,111.1,13.12,25.05,148.0
"2009-07-17 01:24:00",1068937,6.031,185,2.636,0.454,21.08,109.7339,24.21,25.23,29.64,0,111.1,13.12,25.05,147.0
"2009-07-17 01:24:30",1068938,6.241,178.5,2.511,0.245,21.1,109.7339,24.21,25.24,29.61,0,111.1,13.12,25.05,140.5
"2009-07-17 01:25:00",1068939,5.716,175.5,1.919,0.173,21.1,109.7339,24.21,25.25,29.64,0,111.1,13.12,25.05,137.5
"2009-07-17 01:25:30",1068940,5.822,183.7,2.714,0.325,21.1,109.7339,24.21,25.24,29.64,0,111.1,13.12,25.05,145.7
"2009-07-17 01:26:00",1068941,5.561,185.9,3.493,0.439,21.13,109.7339,24.21,25.24,29.7,0,111.1,13.12,25.05,147.9
"2009-07-17 01:26:30",1068942,5.407,190.1,3.525,0.215,21.08,109.7339,24.21,25.24,29.69,0,111.1,13.11,25.05,152.1
"2009-07-17 01:27:00",1068943,5.522,193.5,3.191,0.27,21.07,109.7339,24.21,25.23,29.82,0,111.1,13.11,25.05,155.5
"2009-07-17 01:27:30",1068944,5.077,189.8,3.577,0.276,21.05,109.7342,24.21,25.23,29.91,0,111.1,13.11,25.05,151.8
"2009-07-17 01:28:00",1068945,4.705,184,4.392,0.581,21.02,109.7339,24.21,25.24,29.94,0,111.1,13.11,25.05,146.0
"2009-07-17 01:28:30",1068946,5.195,182.5,3.338,0.339,21.02,109.7345,24.21,25.23,30,0,111.1,13.11,25.05,144.5
"2009-07-17 01:29:00",1068947,4.853,173.6,3.786,0.208,21.06,109.7345,24.21,25.22,29.95,0,111.1,13.11,25.05,135.6
"2009-07-17 01:29:30",1068948,4.416,166.9,3.746,0.161,20.99,109.7351,24.21,25.23,29.92,0,111.1,13.11,25.05,128.9
"2009-07-17 01:30:00",1068949,4.477,170.7,1.466,0.12,21.03,109.7345,24.21,25.22,29.83,0,111.1,13.11,25.05,132.7
"2009-07-17 01:30:30",1068950,4.67,172.7,1.546,0.211,21,109.7339,24.21,25.24,29.86,0,111.1,13.12,25.05,134.7
"2009-07-17 01:31:00",1068951,5.015,176,1.645,0.141,21,109.7212,24.18,25.23,29.96,0,111.1,13.12,25.01,138.0
"2009-07-17 01:31:30",1068952,4.984,173.3,3.156,0.157,21.1,109.7153,24.16,25.22,29.81,0,111.1,13.12,25.00,135.3
"2009-07-17 01:32:00",1068953,4.956,173.7,7.242,0.298,21.06,109.7084,24.15,25.21,29.81,0,111.1,13.12,24.98,135.7
"2009-07-17 01:32:30",1068954,4.487,185.8,3.911,0.427,21.13,109.7054,24.14,25.2,29.7,0,111.1,13.12,24.97,147.8
"2009-07-17 01:33:00",1068955,4.73,171.9,3.211,0.31,21.09,109.7089,24.15,25.2,29.74,0,111.1,13.12,24.98,133.9
"2009-07-17 01:33:30",1068956,5.021,172.9,2.747,0.2,21.04,109.7085,24.15,25.19,29.82,0,111.1,13.12,24.98,134.9
"2009-07-17 01:34:00",1068957,5.157,172.5,1.933,0.114,21.05,109.712,24.15,25.18,29.86,0,111.1,13.12,24.99,134.5
"2009-07-17 01:34:30",1068958,5.538,181,3.93,0.315,21.2,109.7099,24.15,25.17,29.63,0,111.1,13.12,24.99,143.0
"2009-07-17 01:35:00",1068959,5.351,184.1,3.224,0.222,21.21,109.7049,24.14,25.17,29.57,0,111.1,13.12,24.97,146.1
"2009-07-17 01:35:30",1068960,5.081,185.6,4.782,0.267,21.15,109.7007,24.13,25.17,29.6,0,111.1,13.12,24.96,147.6
"2009-07-17 01:36:00",1068961,4.609,175.7,4,0.183,21.06,109.7012,24.13,25.15,29.74,0,111.1,13.12,24.96,137.7
"2009-07-17 01:36:30",1068962,4.561,177.7,3.84,0.315,21.06,109.7006,24.13,25.15,29.77,0,111.1,13.12,24.96,139.7
"2009-07-17 01:37:00",1068963,4.643,178.9,3.68,0.204,21.08,109.7006,24.13,25.14,29.73,0,111.1,13.12,24.96,140.9
"2009-07-17 01:37:30",1068964,4.784,181,4.183,0.373,21.1,109.6984,24.12,25.13,29.71,0,111.1,13.12,24.96,143.0
"2009-07-17 01:38:00",1068965,4.75,183.3,3.665,0.239,21.11,109.6951,24.11,25.14,29.69,0,111.1,13.12,24.95,145.3
"2009-07-17 01:38:30",1068966,4.52,178.2,5.175,0.336,21.05,109.6943,24.11,25.13,29.8,0,111.1,13.12,24.95,140.2
"2009-07-17 01:39:00",1068967,4.506,174.1,4.187,0.218,21.04,109.6943,24.11,25.13,29.86,0,111.1,13.12,24.95,136.1
"2009-07-17 01:39:30",1068968,4.613,173.6,2.255,0.243,21.04,109.6943,24.11,25.13,29.9,0,111.1,13.12,24.95,135.6
"2009-07-17 01:40:00",1068969,4.778,177.1,3.534,0.279,21.1,109.6943,24.11,25.11,29.92,0,111.1,13.12,24.95,139.1
"2009-07-17 01:40:30",1068970,4.836,186.5,5.4,0.218,21.16,109.6943,24.11,25.12,29.81,0,111.1,13.13,24.95,148.5
"2009-07-17 01:41:00",1068971,5.103,186.9,4.159,0.212,21.12,109.6952,24.11,25.12,29.71,0,111.1,13.13,24.95,148.9
"2009-07-17 01:41:30",1068972,5.319,174,2.545,0.321,21.1,109.6958,24.11,25.09,29.64,0,111.1,13.13,24.95,136.0
"2009-07-17 01:42:00",1068973,4.901,178.2,4.5,0.243,21.13,109.6948,24.11,25.1,29.55,0,111.1,13.13,24.95,140.2
"2009-07-17 01:42:30",1068974,4.64,183.5,4.862,0.255,21.16,109.6883,24.09,25.11,29.53,0,111.1,13.12,24.93,145.5
"2009-07-17 01:43:00",1068975,4.736,191.5,2.459,0.267,21.28,109.6843,24.08,25.09,29.29,0,111.1,13.12,24.92,153.5
"2009-07-17 01:43:30",1068976,4.774,192.9,3.32,0.129,21.31,109.6841,24.08,25.09,29.18,0,111.1,13.12,24.92,154.9
"2009-07-17 01:44:00",1068977,4.642,189.7,4.067,0.122,21.31,109.6822,24.08,25.09,29.12,0,111.1,13.12,24.91,151.7
"2009-07-17 01:44:30",1068978,5.128,193.6,2.595,0.375,21.32,109.6793,24.07,25.08,29.11,0,111.1,13.12,24.91,155.6
"2009-07-17 01:45:00",1068979,4.958,191.9,4.041,0.166,21.28,109.6791,24.07,25.09,29.11,0,111.1,13.12,24.91,153.9
"2009-07-17 01:45:30",1068980,4.903,191.8,2.068,0.367,21.29,109.6802,24.07,25.08,29.09,0,111.1,13.12,24.91,153.8
"2009-07-17 01:46:00",1068981,5.257,191,4.804,0.21,21.26,109.6785,24.07,25.09,29.09,0,111.1,13.12,24.90,153.0
"2009-07-17 01:46:30",1068982,5.229,177.3,3.279,0.255,21.14,109.6791,24.07,25.09,29.45,0,111.1,13.12,24.91,139.3
"2009-07-17 01:47:00",1068983,4.106,185.5,8.14,0.361,21.19,109.6791,24.07,25.08,29.45,0,111.1,13.12,24.91,147.5